This is the latest recevied weather packets stored in our database for station/object WC4PEM-9. If no packets are shown the sender has not sent any weather packets the latest 10 day(s).
| Time | Temp. | Humidity | Pressure | Rain* | Wind** | Luminosity | Snow |
|---|---|---|---|---|---|---|---|
| 1777229337 | 28.89° C | 62% | 1010.1 hPa | 0 mm | - | - | - |
| 1777229135 | 28.89° C | 61% | 1010.1 hPa | 0 mm | - | - | - |
| 1777229037 | 28.89° C | 61% | 1010.1 hPa | 0 mm | - | - | - |
| 1777228870 | 28.89° C | 62% | 1009.9 hPa | 0 mm | - | - | - |
| 1777228737 | 28.89° C | 62% | 1009.9 hPa | 0 mm | - | - | - |
| 1777228538 | 28.89° C | 62% | 1010.2 hPa | 0 mm | - | - | - |
| 1777228437 | 28.89° C | 62% | 1010.2 hPa | 0 mm | - | - | - |
| 1777228341 | 29.44° C | 58% | 1010.4 hPa | 0 mm | - | - | - |
| 1777228137 | 29.44° C | 58% | 1010.4 hPa | 0 mm | - | - | - |
| 1777227837 | 29.44° C | 58% | 1010.2 hPa | 0 mm | - | - | - |
| 1777227707 | 29.44° C | 56% | 1010.3 hPa | 0 mm | - | - | - |
| 1777227650 | 29.44° C | 56% | 1010.3 hPa | 0 mm | - | - | - |
| 1777227537 | 29.44° C | 56% | 1010.3 hPa | 0 mm | - | - | - |
| 1777227342 | 29.44° C | 60% | 1010.4 hPa | 0 mm | - | - | - |
| 1777227237 | 29.44° C | 60% | 1010.4 hPa | 0 mm | - | - | - |
| 1777227050 | 28.89° C | 60% | 1010.3 hPa | 0 mm | - | - | - |
| 1777226937 | 28.89° C | 60% | 1010.3 hPa | 0 mm | - | - | - |
| 1777226744 | 28.89° C | 58% | 1010.7 hPa | 0 mm | - | - | - |
| 1777226637 | 28.89° C | 58% | 1010.7 hPa | 0 mm | - | - | - |
| 1777226432 | 29.44° C | 56% | 1010.7 hPa | 0 mm | - | - | - |
| 1777226337 | 29.44° C | 56% | 1010.7 hPa | 0 mm | - | - | - |
| 1777226037 | 29.44° C | 55% | 1010.4 hPa | 0 mm | - | - | - |
| 1777225837 | 29.44° C | 55% | 1010.4 hPa | 0 mm | - | - | - |
| 1777225737 | 29.44° C | 55% | 1010.4 hPa | 0 mm | - | - | - |
| 1777225437 | 29.44° C | 58% | 1010.3 hPa | 0 mm | - | - | - |
* Rain latest hour (hover to see other rain measurements)
** Current wind speed in m/s (hover to see current wind gust speed)